Total_Precipitation_Accumulation
0.08 0.09 0.10 0.11 0.07 0.04 0.02 0.01 0.00 0.01 0.01 0.00 0.01 0.01 0.01 0.02 0.05 0.12 0.09 0.07 0.09 0.13 0.19 0.34 0.48 0.60 0.65 0.65 0.61 0.57 0.57 0.60 0.66 0.71 0.64 0.64 0.66 0.65 0.70 0.69 0.72 0.79 0.84 0.90 0.88 0.85 0.84 0.85 0.86
0.09 0.13 0.15 0.15 0.07 0.03 0.02 0.01 0.00 0.01 0.01 0.00 0.01 0.01 0.01 0.02 0.03 0.05 0.08 0.07 0.08 0.11 0.15 0.24 0.43 0.58 0.65 0.65 0.63 0.59 0.57 0.57 0.61 0.70 0.68 0.70 0.73 0.75 0.72 0.73 0.77 0.81 0.86 0.87 0.91 0.90 0.88 0.86 0.81
0.15 0.19 0.20 0.16 0.06 0.02 0.01 0.01 0.00 0.01 0.01 0.01 0.01 0.01 0.02 0.03 0.03 0.04 0.05 0.06 0.08 0.12 0.16 0.26 0.46 0.59 0.68 0.71 0.70 0.65 0.62 0.63 0.65 0.72 0.73 0.77 0.82 0.83 0.77 0.77 0.77 0.79 0.81 0.79 0.81 0.84 0.81 0.78 0.72
0.22 0.29 0.25 0.14 0.04 0.01 0.01 0.01 0.01 0.01 0.01 0.02 0.01 0.02 0.02 0.02 0.03 0.05 0.06 0.07 0.09 0.15 0.20 0.28 0.46 0.60 0.69 0.75 0.80 0.76 0.71 0.70 0.72 0.80 0.85 0.86 0.85 0.84 0.83 0.77 0.70 0.70 0.73 0.73 0.73 0.74 0.73 0.75 0.73
0.31 0.31 0.23 0.11 0.03 0.02 0.01 0.01 0.01 0.02 0.03 0.02 0.03 0.03 0.05 0.04 0.04 0.06 0.07 0.08 0.11 0.18 0.24 0.31 0.47 0.62 0.69 0.78 0.83 0.83 0.82 0.81 0.80 0.86 0.92 0.95 0.93 0.87 0.84 0.78 0.70 0.64 0.60 0.64 0.69 0.70 0.71 0.78 0.74
0.41 0.32 0.16 0.06 0.02 0.01 0.01 0.02 0.02 0.03 0.03 0.04 0.06 0.07 0.08 0.08 0.09 0.10 0.11 0.14 0.16 0.20 0.25 0.34 0.55 0.67 0.74 0.81 0.88 0.90 0.91 0.93 0.92 0.94 1.02 1.04 1.02 0.94 0.84 0.76 0.72 0.69 0.60 0.59 0.62 0.66 0.74 0.79 0.73
0.42 0.29 0.12 0.03 0.02 0.01 0.01 0.02 0.03 0.04 0.05 0.06 0.09 0.10 0.09 0.12 0.14 0.15 0.16 0.18 0.22 0.28 0.32 0.41 0.54 0.67 0.80 0.91 0.97 0.98 1.03 1.07 1.05 1.05 1.11 1.07 1.00 1.00 0.95 0.89 0.81 0.75 0.68 0.66 0.61 0.61 0.69 0.75 0.73
0.44 0.37 0.16 0.05 0.03 0.03 0.01 0.02 0.04 0.05 0.06 0.06 0.08 0.11 0.11 0.12 0.15 0.20 0.25 0.29 0.31 0.36 0.42 0.50 0.58 0.69 0.82 0.94 0.95 0.98 1.06 1.15 1.16 1.18 1.05 0.90 0.90 0.97 0.93 0.84 0.83 0.74 0.68 0.67 0.62 0.58 0.60 0.62 0.63
0.57 0.53 0.23 0.07 0.04 0.03 0.02 0.03 0.03 0.05 0.07 0.08 0.07 0.10 0.13 0.15 0.20 0.28 0.40 0.48 0.51 0.51 0.52 0.59 0.70 0.81 0.91 1.00 0.94 1.00 1.11 1.16 1.15 1.12 0.95 0.85 0.87 0.85 0.83 0.68 0.65 0.71 0.68 0.67 0.67 0.67 0.61 0.54 0.47
0.72 0.55 0.21 0.08 0.06 0.06 0.05 0.05 0.05 0.07 0.08 0.09 0.09 0.11 0.16 0.22 0.32 0.38 0.45 0.52 0.57 0.60 0.61 0.67 0.78 0.94 1.07 1.05 1.05 1.14 1.18 1.15 1.06 1.00 0.96 0.92 0.93 0.87 0.78 0.67 0.60 0.67 0.68 0.70 0.73 0.73 0.67 0.59 0.48
0.67 0.49 0.22 0.10 0.08 0.10 0.09 0.08 0.07 0.08 0.09 0.12 0.14 0.12 0.18 0.29 0.40 0.45 0.50 0.58 0.61 0.68 0.71 0.73 0.89 1.01 1.15 1.21 1.15 1.18 1.26 1.29 1.24 1.13 1.08 1.04 1.08 1.03 0.90 0.77 0.66 0.69 0.67 0.70 0.71 0.72 0.67 0.65 0.64
0.61 0.41 0.27 0.16 0.12 0.14 0.16 0.12 0.10 0.10 0.10 0.11 0.18 0.18 0.21 0.28 0.36 0.45 0.55 0.63 0.73 0.80 0.81 0.82 0.91 1.12 1.27 1.32 1.26 1.23 1.23 1.24 1.25 1.24 1.20 1.19 1.14 1.02 0.87 0.76 0.65 0.62 0.62 0.65 0.68 0.68 0.64 0.66 0.68
0.57 0.37 0.27 0.22 0.18 0.17 0.19 0.19 0.15 0.13 0.10 0.12 0.21 0.27 0.30 0.33 0.40 0.46 0.56 0.68 0.72 0.79 0.85 0.89 0.95 1.10 1.31 1.42 1.36 1.32 1.26 1.18 1.22 1.33 1.34 1.24 1.17 1.04 0.93 0.85 0.77 0.69 0.62 0.62 0.66 0.70 0.69 0.68 0.72
0.54 0.42 0.33 0.28 0.26 0.24 0.25 0.23 0.19 0.17 0.14 0.17 0.26 0.31 0.37 0.40 0.47 0.52 0.58 0.62 0.67 0.76 0.88 0.98 1.04 1.12 1.28 1.38 1.39 1.34 1.33 1.32 1.33 1.31 1.34 1.33 1.27 1.17 1.08 0.99 0.94 0.87 0.77 0.71 0.74 0.79 0.80 0.76 0.72
0.53 0.58 0.50 0.37 0.33 0.33 0.34 0.36 0.24 0.17 0.17 0.24 0.28 0.32 0.38 0.45 0.50 0.56 0.60 0.63 0.65 0.78 0.94 1.07 1.19 1.23 1.30 1.39 1.46 1.47 1.42 1.37 1.30 1.24 1.25 1.26 1.27 1.22 1.08 1.01 0.97 0.95 0.94 0.91 0.86 0.83 0.90 0.86 0.78
0.79 0.90 0.76 0.44 0.34 0.39 0.50 0.48 0.23 0.20 0.22 0.29 0.31 0.36 0.39 0.42 0.49 0.57 0.65 0.75 0.82 0.92 1.02 1.14 1.31 1.36 1.37 1.39 1.49 1.58 1.57 1.48 1.35 1.25 1.24 1.21 1.23 1.27 1.23 1.11 1.02 1.00 1.03 1.05 1.03 0.92 0.89 0.89 0.88
1.15 1.04 0.68 0.40 0.33 0.42 0.53 0.47 0.27 0.24 0.27 0.31 0.34 0.40 0.43 0.46 0.51 0.57 0.65 0.75 0.86 0.96 1.06 1.19 1.30 1.39 1.41 1.43 1.58 1.65 1.64 1.58 1.49 1.40 1.26 1.22 1.24 1.22 1.23 1.18 1.15 1.17 1.17 1.12 1.09 1.02 0.99 0.95 0.92
0.92 0.70 0.54 0.42 0.36 0.40 0.45 0.36 0.29 0.28 0.30 0.31 0.33 0.38 0.42 0.45 0.48 0.57 0.69 0.81 0.94 1.05 1.10 1.22 1.32 1.45 1.55 1.65 1.72 1.84 1.79 1.68 1.62 1.53 1.41 1.27 1.24 1.26 1.31 1.24 1.20 1.23 1.24 1.23 1.26 1.22 1.12 1.06 1.06
0.63 0.59 0.51 0.39 0.34 0.42 0.44 0.34 0.31 0.31 0.32 0.32 0.35 0.36 0.40 0.43 0.45 0.52 0.66 0.82 0.99 1.08 1.17 1.25 1.33 1.46 1.57 1.63 1.59 1.65 1.69 1.66 1.66 1.59 1.51 1.46 1.39 1.37 1.42 1.34 1.27 1.26 1.20 1.12 1.09 1.20 1.24 1.18 1.14
0.79 0.77 0.56 0.42 0.36 0.44 0.45 0.37 0.33 0.37 0.36 0.34 0.35 0.37 0.42 0.42 0.45 0.52 0.61 0.78 0.99 1.09 1.18 1.28 1.31 1.43 1.50 1.46 1.50 1.55 1.63 1.70 1.75 1.74 1.69 1.55 1.44 1.44 1.53 1.56 1.43 1.29 1.22 1.15 1.04 1.02 1.12 1.14 1.13
0.86 0.69 0.53 0.52 0.53 0.55 0.56 0.49 0.34 0.38 0.38 0.34 0.31 0.34 0.39 0.40 0.43 0.49 0.59 0.72 0.86 0.98 1.11 1.26 1.26 1.29 1.46 1.54 1.72 1.83 1.91 1.96 1.95 1.84 1.77 1.64 1.48 1.38 1.38 1.50 1.59 1.52 1.36 1.22 1.11 1.05 1.01 1.06 1.04
0.84 0.49 0.51 0.62 0.88 1.00 0.78 0.83 0.40 0.38 0.43 0.38 0.35 0.35 0.36 0.38 0.42 0.49 0.53 0.65 0.78 0.84 1.02 1.17 1.23 1.23 1.39 1.58 1.65 1.67 1.65 1.68 1.62 1.60 1.60 1.59 1.53 1.45 1.41 1.46 1.51 1.55 1.45 1.31 1.23 1.16 1.07 1.04 1.06
0.66 0.52 0.67 0.82 1.05 1.20 0.85 0.91 0.51 0.39 0.46 0.43 0.37 0.37 0.34 0.31 0.35 0.46 0.53 0.60 0.72 0.84 1.03 1.15 1.17 1.25 1.37 1.51 1.61 1.64 1.61 1.57 1.62 1.67 1.66 1.68 1.58 1.51 1.46 1.48 1.51 1.50 1.43 1.32 1.26 1.18 1.13 1.07 1.03
0.69 0.83 0.99 1.19 1.68 1.85 0.78 0.68 0.56 0.42 0.43 0.41 0.37 0.39 0.34 0.30 0.32 0.42 0.55 0.61 0.72 0.86 1.00 1.17 1.25 1.29 1.38 1.53 1.66 1.65 1.62 1.65 1.72 1.71 1.76 1.81 1.75 1.64 1.54 1.51 1.52 1.47 1.39 1.32 1.27 1.21 1.17 1.11 1.04
1.13 1.64 2.39 2.50 2.49 1.46 0.43 0.44 0.48 0.33 0.29 0.31 0.33 0.37 0.33 0.30 0.33 0.42 0.53 0.66 0.75 0.83 0.93 1.13 1.31 1.29 1.27 1.41 1.57 1.59 1.61 1.72 1.72 1.73 1.73 1.80 1.79 1.66 1.55 1.47 1.47 1.47 1.41 1.34 1.29 1.26 1.23 1.20 1.19
1.13 1.43 1.91 1.78 1.17 0.58 0.36 0.44 0.40 0.24 0.20 0.21 0.24 0.30 0.29 0.31 0.36 0.43 0.49 0.60 0.73 0.81 0.90 1.05 1.24 1.27 1.22 1.26 1.38 1.50 1.59 1.74 1.81 1.88 1.85 1.81 1.76 1.68 1.61 1.58 1.55 1.49 1.47 1.48 1.42 1.32 1.26 1.27 1.25
0.99 1.08 0.99 1.35 0.96 0.59 0.45 0.36 0.29 0.18 0.17 0.18 0.21 0.26 0.26 0.27 0.33 0.42 0.46 0.54 0.70 0.82 0.86 0.89 1.12 1.21 1.20 1.24 1.30 1.42 1.50 1.56 1.59 1.72 1.83 1.82 1.75 1.67 1.64 1.60 1.60 1.58 1.59 1.64 1.65 1.53 1.36 1.32 1.25
0.81 0.98 1.27 1.86 1.58 0.83 0.44 0.30 0.31 0.25 0.23 0.20 0.21 0.25 0.27 0.31 0.35 0.44 0.46 0.52 0.64 0.79 0.84 0.81 0.98 1.12 1.11 1.18 1.26 1.33 1.42 1.49 1.48 1.54 1.58 1.64 1.71 1.68 1.66 1.63 1.56 1.53 1.55 1.64 1.74 1.67 1.49 1.41 1.33
0.89 1.19 1.55 1.69 1.31 0.96 0.60 0.43 0.35 0.32 0.28 0.25 0.24 0.27 0.30 0.36 0.41 0.49 0.52 0.57 0.64 0.76 0.80 0.82 0.88 1.08 1.16 1.15 1.18 1.24 1.32 1.44 1.51 1.54 1.49 1.44 1.54 1.67 1.66 1.61 1.56 1.51 1.51 1.56 1.65 1.67 1.65 1.56 1.45
0.82 0.98 1.22 1.66 1.29 0.79 0.68 0.47 0.28 0.29 0.28 0.27 0.29 0.29 0.31 0.33 0.38 0.45 0.51 0.58 0.69 0.82 0.86 0.83 0.87 1.02 1.19 1.24 1.16 1.19 1.27 1.38 1.47 1.48 1.45 1.43 1.37 1.41 1.55 1.63 1.65 1.59 1.50 1.53 1.64 1.65 1.66 1.66 1.58